Location: Muenchen
(48.1800°N, 11.5800°E)
Time: 03:51:11
(UTC+02:00)

Iridium 36 - Visible Passes

Search period start: 02 September 2014 00:00
Search period end: 12 September 2014 00:00
Orbit: 773 x 776 km, 86.4° (Epoch: 01 September)

Date Brightness Start Highest point End Pass type
(mag) Time Alt. Az. Time Alt. Az. Time Alt. Az.
02 Sep 6.5 03:42:16 23° SE 03:45:00 43° E 03:49:54 10° NNE visible
02 Sep 6.5 05:22:42 16° WSW 05:25:50 27° WNW 05:30:16 10° NNW visible
03 Sep 7.4 03:08:20 18° ESE 03:10:48 25° E 03:14:59 10° NNE visible
03 Sep 5.8 04:48:46 28° SW 04:51:10 47° W 04:56:12 10° N visible
04 Sep 8.0 02:34:24 11° ESE 02:36:44 15° ENE 02:39:29 10° NE visible
04 Sep 5.4 04:14:49 42° S 04:16:39 82° W 04:21:53 10° N visible
04 Sep 7.4 05:56:03 10° W 05:58:12 12° WNW 06:00:21 10° NW visible
05 Sep 6.0 03:40:51 43° SE 03:42:15 57° E 03:47:21 10° N visible
05 Sep 6.9 05:21:17 17° WSW 05:23:19 21° WNW 05:27:15 10° NNW visible
06 Sep 6.9 03:06:52 29° ESE 03:07:59 33° E 03:12:35 10° NNE visible
06 Sep 6.2 04:47:18 31° WSW 04:48:35 36° WNW 04:53:22 10° NNW visible
07 Sep 7.6 02:32:52 18° E 02:33:51 19° ENE 02:37:26 10° NNE visible
07 Sep 5.5 04:13:17 57° WSW 04:13:59 63° W 04:19:10 10° N visible
08 Sep 8.2 01:58:50 10° E 01:59:50 11° ENE 02:01:00 10° ENE visible
08 Sep 5.5 03:39:16 73° ESE 03:39:32 75° E 03:44:44 10° N visible
08 Sep 7.1 05:19:41 16° W 05:20:49 17° WNW 05:24:05 10° NNW visible
09 Sep 6.4 03:05:13 42° E 03:05:13 42° E 03:10:05 10° NNE visible
09 Sep 6.5 04:45:39 27° W 04:46:01 28° WNW 04:50:27 10° NNW visible
10 Sep 7.3 02:31:10 25° ENE 02:31:10 25° ENE 02:35:09 10° NNE visible
10 Sep 5.9 04:11:35 47° WNW 04:11:35 47° WNW 04:16:23 10° N visible
11 Sep 7.9 01:57:06 14° ENE 01:57:06 14° ENE 01:59:37 10° NE visible
11 Sep 5.7 03:37:31 68° NNW 03:37:31 68° NNW 03:42:04 10° N visible
11 Sep 7.4 05:17:56 12° WNW 05:18:22 13° WNW 05:20:35 10° NW visible
